Temp
51 43 41 47 51 52 50 48 46 56 62 59 60 60 66 67 65 65 71 71 69 71 76 78 78 78 77 78 78 78 77 77 77 75 74 72 70 69 67 67 68 69 68 69
45 41 51 55 49 47 47 47 45 50 50 58 60 59 66 70 68 67 70 71 72 73 75 73 74 75 74 74 76 76 76 75 76 77 76 74 71 70 68 66 65 66 64 64
44 47 56 50 47 44 44 41 45 44 48 53 57 56 60 67 70 71 72 74 74 73 69 71 70 71 72 71 71 72 72 72 73 74 73 71 68 67 65 64 62 63 63 62
43 55 50 49 46 47 39 47 45 45 43 39 54 45 57 64 65 67 69 71 73 73 72 69 68 68 69 67 68 69 68 69 70 72 70 68 66 63 63 61 61 59 59 59
38 42 46 45 49 53 49 52 47 44 43 42 43 41 57 63 60 65 69 70 72 72 71 68 67 66 64 64 64 65 66 66 68 69 70 68 64 62 62 61 58 57 56 56
41 47 45 47 55 54 54 49 44 44 41 33 41 41 47 57 61 66 69 70 71 70 68 66 64 63 61 62 63 63 63 62 64 65 66 63 60 59 58 58 57 56 56 55
43 44 46 47 48 51 50 44 33 31 31 33 43 40 50 60 64 68 66 67 68 66 64 60 59 60 59 59 59 60 60 57 59 58 57 58 58 57 55 54 54 54 53 53
35 34 42 47 49 44 46 46 38 30 32 35 40 35 47 58 60 61 67 65 63 62 61 60 60 58 56 56 56 54 53 51 50 52 51 51 54 54 53 51 52 52 51 50
35 35 46 44 48 52 42 39 48 40 35 36 39 44 55 55 56 56 58 58 57 58 58 57 57 56 53 51 50 48 47 48 47 49 49 49 49 49 49 50 50 49 48 49
40 33 43 44 46 47 45 48 35 37 31 32 38 40 49 47 52 54 53 55 56 56 54 54 52 52 50 48 49 49 46 46 47 46 46 46 46 46 47 46 45 45 45 46
46 37 36 41 37 38 40 38 42 46 42 38 37 45 54 57 56 54 54 55 54 54 52 52 51 49 48 46 44 43 43 43 42 42 42 41 43 45 45 44 44 45 45 44
48 42 32 33 39 41 41 44 46 37 33 39 39 46 53 56 59 57 56 55 55 54 53 50 47 46 43 43 42 42 41 40 41 42 43 43 43 43 43 44 43 43 41 42
48 39 31 32 36 40 38 42 46 46 42 34 37 46 54 55 56 57 54 54 53 51 50 47 45 44 44 43 42 43 43 43 44 44 42 42 42 42 42 41 41 42 41 40
48 37 36 31 33 38 35 39 45 45 36 37 41 46 48 51 53 53 52 50 50 50 50 48 46 46 47 47 46 46 45 45 44 44 43 41 41 42 41 41 40 39 40 39
46 33 38 34 36 38 39 39 42 43 45 40 46 44 51 52 54 53 53 52 51 50 50 50 49 50 50 49 48 48 46 45 45 44 42 40 40 40 40 38 38 38 38 37
47 35 38 32 38 39 34 40 40 40 43 44 45 46 53 55 57 55 55 54 51 50 51 51 51 50 50 50 48 47 46 44 44 43 40 40 38 37 37 37 36 36 35 35
41 37 33 30 34 35 31 35 38 39 45 46 41 48 51 49 50 53 54 54 54 54 54 52 50 48 47 47 46 44 43 41 41 39 37 36 36 35 34 34 34 33 33 33
37 36 34 30 32 27 37 43 46 45 47 49 47 49 51 52 52 53 56 54 54 55 55 53 52 50 48 46 44 44 40 39 38 37 36 34 34 33 32 32 31 31 32 31
43 39 31 30 31 36 39 39 39 39 45 51 49 49 47 48 49 46 50 54 54 54 53 53 52 50 46 43 43 39 38 37 37 36 34 33 33 31 31 30 30 30 30 29
37 37 35 30 31 29 39 42 48 50 38 52 52 49 47 48 47 48 46 46 46 47 47 46 46 44 43 41 40 37 36 35 35 35 34 33 31 30 29 29 28 29 28 29
31 31 31 33 32 36 42 44 47 35 40 43 49 52 49 49 46 45 43 41 42 41 39 40 41 40 39 38 36 35 34 33 35 32 30 29 29 27 28 27 27 26 26 26
32 30 31 31 32 32 43 43 45 43 45 43 48 49 45 43 43 43 43 40 40 38 37 38 38 37 37 35 35 33 33 32 30 28 26 25 24 26 26 23 23 23 23 22
31 33 34 35 35 38 41 41 43 43 43 44 46 46 47 44 44 44 43 41 40 39 39 38 38 35 34 31 32 31 31 28 25 23 22 21 21 23 24 23 22 23 23 23
35 38 35 35 37 39 41 42 42 43 43 43 44 43 44 42 43 43 42 42 41 37 36 34 33 31 31 30 30 32 30 26 22 22 22 21 20 21 21 24 25 24 24 23
36 38 36 34 38 40 42 42 42 40 42 42 41 43 43 44 44 44 40 37 38 37 33 31 31 31 32 31 30 28 27 23 23 22 22 22 22 21 23 23 24 23 25 26
38 36 38 37 41 40 40 42 41 41 40 41 41 40 39 41 41 38 38 38 36 34 31 29 29 29 31 30 29 28 24 22 22 23 23 24 24 24 23 23 22 25 26 25
MSLP
1012.42 1012.81 1011.79 1011.42 1011.45 1011.52 1011.54 1011.67 1011.71 1010.91 1009.97 1009.96 1009.20 1009.02 1008.52 1008.99 1009.18 1009.90 1010.00 1010.48 1011.26 1011.63 1012.04 1012.55 1013.37 1014.07 1014.70 1015.25 1015.64 1016.11 1016.56 1017.02 1017.51 1017.93 1018.29 1018.78 1019.48 1020.38 1020.97 1021.29 1021.42 1021.47 1021.54 1021.40
1012.26 1011.67 1011.31 1011.22 1011.57 1011.88 1012.00 1011.81 1012.05 1011.80 1011.51 1010.84 1009.51 1008.96 1008.59 1008.34 1008.98 1009.48 1009.72 1009.92 1010.45 1011.00 1011.71 1012.71 1013.58 1014.31 1014.96 1015.57 1015.87 1016.25 1016.60 1017.27 1017.50 1017.70 1018.05 1018.46 1019.55 1020.38 1021.11 1021.70 1022.05 1022.21 1022.39 1022.41
1011.61 1011.06 1010.97 1011.25 1011.65 1012.07 1012.21 1012.56 1012.28 1012.44 1012.46 1011.81 1010.00 1009.16 1008.57 1008.24 1008.42 1008.87 1009.30 1009.39 1010.05 1010.67 1012.24 1012.99 1013.97 1014.73 1015.31 1016.03 1016.49 1016.94 1017.41 1017.70 1017.96 1018.27 1018.70 1019.28 1020.32 1020.89 1021.39 1022.04 1022.62 1022.93 1023.12 1023.18
1012.52 1011.15 1011.09 1011.31 1011.44 1011.97 1012.35 1012.86 1013.11 1013.12 1013.20 1011.98 1011.06 1008.91 1007.90 1007.67 1007.80 1008.37 1008.77 1009.11 1009.70 1010.65 1012.22 1013.51 1014.66 1015.33 1015.88 1016.75 1017.37 1017.74 1018.09 1018.24 1018.52 1018.71 1019.08 1019.52 1020.09 1020.88 1021.78 1022.46 1023.05 1023.49 1023.60 1023.90
1013.21 1012.40 1011.99 1011.52 1010.87 1011.44 1011.54 1012.48 1013.05 1013.70 1013.26 1012.77 1012.00 1011.16 1007.54 1007.40 1007.38 1007.69 1008.34 1009.00 1009.73 1010.91 1012.28 1013.62 1014.96 1015.91 1016.95 1017.63 1018.05 1018.48 1018.82 1018.98 1019.09 1019.23 1019.49 1019.87 1020.78 1021.71 1022.36 1022.97 1023.49 1023.77 1024.19 1024.54
1013.35 1013.28 1012.93 1012.10 1011.08 1011.15 1011.56 1012.48 1013.23 1013.56 1013.52 1013.06 1011.91 1011.26 1008.90 1007.11 1007.10 1007.36 1008.11 1008.96 1009.89 1011.21 1012.96 1014.48 1015.81 1016.79 1017.86 1018.48 1018.84 1019.17 1019.58 1019.91 1020.02 1020.10 1020.44 1021.04 1021.72 1022.35 1022.89 1023.36 1023.86 1024.12 1024.10 1024.89
1012.75 1012.61 1012.70 1012.62 1011.63 1011.59 1011.89 1012.31 1013.43 1014.30 1014.01 1013.19 1012.25 1011.52 1009.13 1008.00 1007.83 1007.72 1008.36 1009.47 1010.69 1012.25 1013.87 1015.38 1016.45 1017.37 1018.41 1019.19 1019.76 1020.18 1020.59 1021.10 1021.37 1021.47 1021.71 1022.02 1022.53 1023.05 1023.72 1024.19 1024.69 1025.36 1024.46 1025.46
1012.51 1012.61 1012.52 1012.25 1011.48 1011.37 1011.61 1011.80 1012.17 1012.66 1012.76 1013.02 1012.61 1011.19 1009.86 1009.37 1009.40 1009.53 1009.49 1010.75 1012.16 1013.40 1014.89 1015.97 1016.89 1018.08 1019.14 1019.89 1020.61 1021.23 1022.02 1022.49 1022.85 1022.98 1023.24 1023.35 1023.37 1023.82 1024.42 1024.38 1025.00 1025.96 1025.99 1026.07
1012.86 1012.78 1012.80 1012.82 1012.44 1011.85 1012.40 1012.19 1012.39 1012.17 1013.02 1012.51 1011.99 1011.30 1009.89 1009.83 1010.09 1010.67 1011.20 1012.20 1013.36 1014.45 1015.67 1016.97 1018.10 1018.99 1019.90 1020.70 1021.46 1022.09 1022.67 1023.62 1024.15 1023.88 1024.31 1024.69 1024.59 1024.07 1024.77 1024.94 1025.75 1026.61 1026.80 1026.61
1013.22 1013.33 1013.01 1012.95 1013.19 1012.75 1012.37 1012.44 1012.97 1012.91 1012.56 1011.42 1011.00 1010.62 1008.99 1009.63 1010.00 1011.03 1012.09 1012.90 1014.10 1015.42 1016.79 1018.02 1019.36 1020.11 1020.87 1021.42 1022.07 1022.81 1023.73 1024.14 1025.22 1025.91 1024.98 1025.34 1025.41 1025.32 1026.08 1025.85 1026.43 1026.73 1027.03 1027.23
1012.96 1013.95 1014.03 1013.91 1014.01 1013.24 1013.00 1012.50 1012.60 1012.14 1011.83 1010.69 1010.29 1009.45 1008.91 1008.80 1009.68 1010.86 1012.25 1013.57 1014.96 1016.18 1017.43 1018.69 1019.94 1020.88 1021.44 1022.14 1022.64 1023.37 1024.04 1024.83 1025.39 1025.99 1025.50 1025.81 1026.47 1026.80 1026.93 1027.06 1026.90 1027.30 1027.56 1027.70
1012.98 1013.45 1014.29 1014.55 1014.25 1014.07 1013.37 1012.42 1012.04 1011.71 1011.83 1011.28 1010.85 1009.63 1009.65 1009.57 1009.74 1011.09 1012.52 1014.17 1015.65 1016.80 1017.92 1019.32 1020.34 1021.15 1021.70 1022.38 1023.02 1023.59 1023.99 1024.84 1025.43 1025.93 1026.14 1026.64 1027.19 1027.33 1027.50 1027.75 1027.78 1027.88 1028.02 1028.18
1012.91 1013.44 1014.18 1014.40 1014.64 1014.32 1013.27 1012.86 1011.96 1011.74 1011.42 1011.35 1010.79 1009.89 1010.24 1010.25 1010.57 1011.60 1012.79 1014.35 1015.90 1017.16 1018.41 1019.56 1020.48 1021.04 1021.39 1021.89 1022.28 1023.35 1024.32 1025.08 1025.78 1026.41 1026.39 1026.59 1026.88 1027.39 1027.77 1027.94 1027.94 1028.09 1028.32 1028.53
1013.81 1013.85 1013.77 1014.30 1014.20 1013.79 1013.31 1012.87 1012.36 1012.00 1011.82 1011.33 1010.49 1010.09 1010.53 1010.72 1011.33 1012.41 1013.76 1014.88 1015.93 1017.21 1018.14 1019.11 1020.10 1020.75 1021.56 1022.31 1023.26 1024.07 1025.06 1025.61 1026.02 1026.29 1026.51 1026.79 1027.20 1027.68 1027.73 1028.04 1028.43 1028.70 1028.73 1028.79
1014.25 1013.86 1014.15 1014.48 1014.55 1014.04 1013.42 1013.00 1012.66 1012.17 1011.69 1011.37 1010.52 1010.42 1010.37 1010.83 1011.62 1012.71 1013.99 1015.40 1016.28 1017.20 1018.13 1018.98 1019.64 1020.43 1021.22 1021.86 1022.99 1023.96 1024.83 1025.50 1025.95 1026.41 1026.61 1027.06 1027.37 1027.45 1027.88 1028.43 1028.62 1028.59 1028.65 1028.83
1014.42 1014.11 1014.41 1014.80 1014.73 1014.33 1013.61 1013.03 1012.82 1012.58 1012.10 1011.67 1011.40 1010.97 1011.07 1011.41 1012.00 1012.95 1013.77 1014.70 1015.47 1016.73 1017.69 1018.60 1019.58 1020.41 1021.05 1021.72 1022.72 1023.50 1024.46 1025.06 1025.83 1026.27 1026.47 1026.87 1027.27 1027.61 1028.26 1028.64 1028.73 1028.71 1028.64 1028.74
1014.71 1014.69 1014.82 1015.08 1015.07 1014.61 1014.13 1013.20 1012.96 1012.83 1012.40 1012.07 1011.71 1011.58 1011.82 1012.27 1012.82 1013.13 1013.62 1014.34 1015.41 1016.20 1016.96 1018.01 1019.06 1020.27 1020.92 1021.64 1022.36 1023.40 1024.17 1025.12 1026.02 1026.43 1026.80 1027.14 1027.49 1028.06 1028.42 1028.57 1028.68 1028.60 1028.65 1028.75
1014.76 1014.80 1014.82 1015.09 1015.25 1014.59 1013.40 1013.18 1012.91 1012.55 1012.43 1012.29 1012.32 1012.66 1012.50 1012.70 1013.49 1013.90 1014.21 1014.74 1015.41 1015.82 1016.76 1017.78 1018.83 1019.86 1020.83 1021.54 1022.54 1023.39 1024.35 1025.21 1026.01 1026.64 1026.93 1027.34 1027.74 1028.15 1028.49 1028.66 1028.60 1028.49 1028.55 1028.85
1014.90 1014.69 1014.97 1014.96 1014.56 1013.78 1013.16 1013.23 1013.04 1012.74 1012.00 1011.80 1012.33 1012.98 1013.21 1013.76 1014.24 1015.04 1015.29 1015.41 1015.69 1016.24 1017.04 1017.89 1018.76 1019.61 1020.68 1021.65 1022.63 1023.71 1024.55 1025.28 1025.92 1026.36 1026.94 1027.44 1027.79 1028.11 1028.35 1028.52 1028.56 1028.68 1028.76 1029.02
1015.58 1015.60 1015.09 1014.77 1014.02 1013.52 1012.97 1013.13 1013.00 1012.83 1012.77 1011.87 1012.22 1012.98 1013.57 1014.34 1014.70 1015.48 1016.08 1016.45 1016.98 1017.44 1018.05 1018.57 1019.16 1019.93 1020.94 1022.11 1022.95 1023.70 1024.46 1025.09 1025.56 1026.19 1026.76 1027.25 1027.67 1027.93 1027.97 1028.23 1028.53 1028.89 1028.98 1028.89
1016.02 1015.89 1015.24 1014.28 1013.89 1013.47 1013.48 1013.67 1013.39 1014.10 1014.36 1013.74 1013.38 1013.23 1013.93 1014.79 1015.58 1015.98 1016.75 1017.52 1018.10 1018.63 1019.13 1019.56 1020.16 1020.69 1021.33 1022.19 1022.89 1023.56 1024.16 1024.75 1025.36 1026.06 1026.72 1027.22 1027.60 1027.85 1028.01 1028.20 1028.29 1028.39 1029.00 1029.05
1015.42 1015.60 1015.07 1014.89 1014.58 1014.78 1014.42 1014.48 1014.09 1014.61 1014.39 1014.61 1014.35 1014.38 1015.02 1015.54 1016.31 1016.96 1017.59 1018.31 1018.98 1019.53 1020.04 1020.30 1020.72 1021.28 1021.91 1022.41 1023.03 1023.62 1024.15 1024.67 1025.42 1026.20 1026.84 1027.25 1027.56 1027.77 1027.92 1028.25 1028.61 1028.53 1028.52 1028.77
1016.05 1015.37 1014.77 1015.09 1015.13 1015.24 1015.37 1015.40 1015.47 1015.43 1015.14 1015.12 1015.16 1015.36 1015.52 1015.98 1016.61 1017.27 1018.02 1018.67 1019.29 1019.98 1020.53 1020.96 1021.26 1021.77 1022.33 1022.86 1023.40 1023.93 1024.36 1024.98 1025.69 1026.24 1026.64 1027.08 1027.52 1027.62 1028.00 1028.14 1028.32 1028.11 1028.15 1028.43
1016.04 1015.71 1015.39 1015.42 1015.64 1015.69 1015.82 1015.96 1016.07 1015.99 1015.87 1016.05 1016.13 1016.37 1016.47 1017.04 1017.83 1018.28 1018.78 1019.40 1019.98 1020.55 1021.13 1021.65 1021.88 1022.34 1022.96 1023.34 1023.80 1024.10 1024.50 1025.01 1025.55 1025.92 1026.39 1026.76 1027.29 1027.38 1027.75 1027.79 1027.90 1027.61 1027.69 1027.92
1016.72 1016.23 1016.09 1016.33 1016.36 1016.47 1016.43 1016.60 1016.84 1016.96 1017.03 1017.20 1017.38 1017.44 1017.61 1017.91 1018.64 1019.16 1019.72 1020.24 1020.80 1021.22 1021.58 1021.75 1022.10 1022.51 1022.77 1023.12 1023.50 1023.88 1024.22 1024.75 1025.28 1025.77 1026.03 1026.43 1026.79 1026.94 1027.01 1027.37 1027.19 1027.09 1027.15 1027.26
1017.07 1017.05 1016.91 1016.93 1016.91 1017.02 1017.16 1017.41 1017.84 1018.03 1018.17 1018.27 1018.42 1018.76 1019.06 1019.18 1019.62 1020.09 1020.42 1020.76 1021.17 1021.38 1021.41 1021.68 1022.11 1022.52 1022.57 1022.92 1023.22 1023.55 1024.07 1024.64 1025.11 1025.42 1025.59 1025.83 1026.03 1026.12 1026.47 1026.61 1026.81 1026.95 1026.97 1027.24
Wind_Speed
12 9 13 17 14 7 8 13 15 22 11 16 16 15 11 7 7 8 11 14 15 16 17 15 13 12 11 9 9 10 10 10 8 6 7 6 6 5 6 6 8 9 8 8
6 12 13 8 6 5 4 16 10 6 3 9 16 15 14 10 11 14 12 13 15 16 17 14 14 12 10 9 9 8 8 7 7 6 5 5 7 6 7 7 8 9 10 10
12 3 15 10 7 9 4 2 13 4 4 11 4 15 15 15 11 9 12 13 14 17 16 15 13 11 9 8 7 6 6 6 5 6 6 7 8 7 6 6 7 9 10 10
6 7 9 10 12 9 6 8 6 11 7 6 7 9 19 18 15 13 12 12 14 16 15 14 13 11 10 8 7 7 7 7 5 7 8 10 7 7 7 7 7 7 10 10
3 2 7 10 12 14 6 16 11 7 10 5 8 6 12 18 18 16 14 14 15 15 15 15 12 11 10 8 8 8 9 9 7 6 6 6 9 8 7 7 8 8 8 10
2 2 1 3 7 13 2 9 7 2 1 3 7 11 14 13 17 17 15 14 16 15 13 12 11 11 10 8 9 9 10 11 10 10 11 11 11 9 7 7 6 5 6 6
1 2 1 3 7 4 12 10 3 3 3 1 4 9 8 4 1 10 14 14 13 14 14 13 13 12 11 11 10 9 11 12 12 13 11 11 11 11 11 8 6 4 6 6
5 5 5 1 6 4 14 8 4 3 4 4 1 6 7 5 6 2 7 12 13 14 13 13 13 13 12 12 12 12 11 12 11 11 11 8 11 8 7 8 7 6 5 6
5 5 2 3 6 6 5 6 4 5 3 3 5 4 12 6 5 7 11 13 14 13 13 14 13 13 13 13 12 10 11 10 8 10 9 9 7 10 9 10 7 5 5 5
4 2 3 2 3 1 4 10 5 1 5 5 6 3 6 9 12 11 12 14 15 14 15 13 13 13 12 12 11 13 9 11 9 5 7 7 10 9 7 6 6 6 5 5
7 2 3 2 4 0 5 4 3 2 3 2 4 4 4 3 13 14 13 13 15 16 16 15 13 12 12 10 9 9 9 8 7 6 8 8 6 6 6 5 6 6 5 5
6 2 3 2 3 5 5 5 7 4 4 1 3 3 3 2 11 13 15 14 15 16 16 14 12 11 10 10 8 8 9 8 5 5 6 6 6 5 5 5 6 5 6 5
8 5 2 3 2 2 3 3 3 4 2 4 3 3 2 4 10 12 16 17 15 15 14 12 11 10 9 9 10 9 8 8 6 5 6 6 6 5 5 5 5 4 4 4
6 1 5 4 3 1 4 5 6 2 2 5 3 3 6 8 11 13 14 14 15 14 15 12 10 9 8 8 8 9 8 7 7 6 6 5 5 5 5 5 4 3 3 4
9 5 4 2 3 2 2 10 10 9 3 4 4 3 3 9 11 14 15 15 15 15 14 14 13 12 11 10 10 10 9 8 7 6 6 6 5 5 5 4 4 4 4 4
15 3 5 2 6 5 1 5 5 2 2 3 1 2 5 6 9 13 16 18 18 16 16 14 13 11 12 12 11 11 10 8 7 7 6 6 6 5 4 4 4 4 4 3
9 4 4 2 3 4 3 9 8 5 6 2 2 5 7 7 11 14 16 17 16 16 15 14 14 12 10 11 10 10 8 7 6 5 5 5 4 5 4 4 4 4 3 3
8 6 1 3 3 4 1 1 11 12 6 9 1 1 3 5 4 3 8 12 13 12 12 12 11 12 10 11 10 9 8 8 6 6 5 5 5 5 5 4 4 4 3 2
6 3 4 5 4 4 4 5 7 7 9 12 10 4 6 7 7 2 1 0 4 6 7 8 9 10 11 11 10 9 8 7 7 7 6 6 5 5 5 4 3 2 2 2
5 4 3 3 4 5 4 3 1 7 5 1 10 9 9 8 4 4 5 3 5 6 5 8 8 8 10 9 10 10 8 8 8 7 6 6 5 5 5 4 3 1 1 2
6 2 5 5 3 1 2 4 5 6 1 8 5 8 10 3 3 6 6 4 3 3 4 5 6 7 7 9 9 9 8 8 5 6 5 5 5 3 3 3 3 4 3 2
4 6 4 2 3 4 1 1 5 3 1 2 2 3 7 8 7 6 6 6 5 6 5 4 6 6 7 7 8 7 7 5 5 5 5 5 4 4 4 4 4 3 3 3
3 2 2 2 2 2 1 3 3 2 2 1 2 4 8 7 4 5 6 6 5 5 4 3 4 5 4 4 3 4 3 6 6 5 5 5 4 4 4 4 5 4 4 4
1 2 2 1 3 2 2 1 2 3 4 4 6 6 6 8 6 6 5 4 3 3 3 2 4 3 2 3 3 4 5 6 6 6 6 4 4 6 5 5 5 4 4 5
2 2 3 3 2 1 1 2 4 6 7 8 8 6 7 8 6 3 3 2 1 1 2 3 3 4 5 6 7 5 5 6 6 5 4 6 6 6 5 6 5 5 5 6
1 3 2 3 5 2 4 5 2 4 5 5 6 5 5 6 5 2 1 0 2 4 3 2 4 5 7 5 7 6 6 7 6 6 6 6 6 5 5 5 5 11 10 8
Wind_Direction
192 201 240 201 210 217 179 178 196 214 164 190 205 211 221 157 146 224 205 178 181 183 183 165 170 168 164 176 174 170 168 172 171 170 171 164 138 103 82 69 53 51 38 41
203 232 218 228 157 108 42 185 199 216 32 235 206 214 224 186 194 194 212 185 179 174 170 163 176 171 171 169 174 175 159 172 187 178 179 127 129 104 101 83 64 53 51 38
247 119 217 214 204 193 229 348 209 179 139 274 214 227 228 228 216 197 210 186 181 175 176 175 166 166 150 152 143 146 140 148 157 136 129 114 111 120 108 88 69 54 50 48
282 238 196 188 181 207 195 195 266 215 185 203 206 229 206 213 208 207 196 197 183 169 175 167 167 154 139 117 108 114 113 115 114 145 145 150 143 118 94 95 88 71 58 50
76 340 230 229 202 183 222 176 174 241 188 162 197 255 244 189 207 201 198 190 185 174 171 159 160 135 122 126 113 109 103 95 100 113 122 105 99 109 105 101 92 89 70 54
230 170 223 295 237 190 143 134 75 127 125 218 181 197 219 194 214 203 195 180 179 160 153 146 131 129 118 113 104 100 99 88 85 87 91 101 110 111 111 105 97 83 80 56
295 191 230 259 206 255 197 146 116 193 179 210 198 197 266 31 161 224 176 171 153 151 148 146 141 130 120 107 98 94 90 85 77 86 83 83 88 87 79 69 61 54 63 48
207 228 156 260 236 160 189 191 163 207 173 123 37 215 223 330 59 337 224 161 149 153 149 150 136 123 116 104 96 88 81 79 73 72 77 85 89 93 93 75 67 44 52 52
188 251 143 201 324 166 160 199 40 108 13 142 186 257 273 199 179 141 142 149 154 144 139 130 129 123 112 105 96 98 96 81 68 82 83 77 98 84 76 78 73 67 46 55
121 291 54 79 322 143 222 142 97 58 180 213 158 237 244 196 189 165 161 162 148 138 129 129 122 119 108 104 99 91 71 83 72 43 75 70 55 70 70 81 86 80 64 58
143 69 24 188 212 354 141 160 189 186 267 286 149 192 36 239 183 173 164 153 148 147 142 137 129 121 116 110 100 103 99 93 91 59 67 64 79 80 80 84 75 77 74 63
212 278 257 289 275 287 290 175 177 193 190 54 339 103 50 309 152 162 151 150 150 146 138 135 135 137 135 135 129 131 124 113 114 114 117 104 108 91 82 78 83 74 75 66
166 209 276 184 143 249 175 248 128 119 53 196 164 111 98 151 146 157 153 152 149 148 148 147 153 163 158 148 133 128 134 138 145 148 137 129 111 113 115 102 89 88 98 91
237 240 217 344 14 64 172 191 226 163 158 163 233 144 173 161 159 155 154 157 159 164 165 162 151 148 141 135 139 143 150 154 162 160 146 127 123 125 102 96 97 104 107 111
239 220 168 62 294 315 211 172 183 192 203 206 152 165 133 164 176 170 168 167 156 164 169 176 172 169 167 160 155 156 161 170 167 165 153 144 138 126 121 134 146 138 127 113
215 293 173 89 316 323 12 208 153 216 276 285 338 160 106 114 157 167 169 173 180 184 186 183 183 178 175 164 169 165 169 170 173 175 165 150 137 131 149 161 157 148 134 112
192 196 166 134 328 296 279 201 182 169 211 278 291 42 147 151 172 184 181 188 195 196 193 186 184 179 173 168 162 169 161 144 173 161 149 149 141 156 170 171 167 155 136 124
168 159 48 104 200 233 120 213 193 196 210 217 203 285 177 140 115 128 194 198 204 198 190 181 178 176 169 159 161 149 146 160 163 170 167 162 172 177 176 180 171 153 148 148
228 149 125 167 205 306 177 177 177 170 247 208 220 138 115 129 138 108 123 314 188 175 171 173 170 165 156 156 147 144 152 161 176 179 178 180 182 176 180 185 176 167 169 166
167 351 292 189 148 208 62 125 176 166 276 346 177 166 156 179 172 120 139 110 98 91 120 147 146 138 142 145 146 146 163 176 191 182 178 168 176 184 184 178 172 155 220 204
153 148 216 202 130 353 96 172 151 165 29 338 301 169 158 193 21 114 119 91 79 74 103 101 115 137 143 146 148 166 171 193 172 147 149 162 176 178 176 163 167 170 206 218
152 168 170 123 110 217 147 264 193 37 54 331 4 86 107 111 117 121 115 111 107 105 104 116 135 143 147 149 160 168 184 144 135 147 162 170 163 179 173 173 186 187 186 210
139 347 101 349 74 37 353 2 355 309 16 45 126 135 130 122 114 106 104 106 109 123 133 126 140 126 122 128 150 163 157 144 152 163 174 172 170 189 191 190 205 198 188 229
53 332 79 167 22 87 30 21 319 352 50 67 71 83 65 88 84 94 96 98 116 129 136 127 94 100 157 155 188 213 160 160 162 186 188 176 188 201 199 211 215 207 201 214
15 275 130 98 68 164 202 17 32 50 62 69 53 50 76 99 92 101 128 143 176 179 170 143 171 203 221 185 209 194 177 159 188 195 181 198 208 201 201 216 215 213 223 220
356 31 343 91 77 13 57 93 94 109 87 69 80 68 53 63 84 72 52 271 227 218 168 181 220 228 239 207 215 204 175 170 184 200 202 207 206 198 210 214 220 231 233 223